Simultaneous Nadir Overpasses (SNOs) Predictions

Prediction of SNOs between GOES-16 and METOP-B Satellite Orbit:

Table of predicted SNOs for the next 14.0 days since TLE Epoch: 6/14/2024
Index Date Time (GOES-16) GOES-16 Lat,Lon METOP-B Lat,Lon Distance(km) Time Diff (sec)
1 06/15/2024 14:10:14 0.05, -75.20 -0.68, -71.83 383.54 80
2 06/17/2024 02:26:30 -0.05, -75.21 -0.33, -76.42 138.93 80
3 06/18/2024 02:08:27 -0.05, -75.21 0.81, -71.43 431.77 80
4 06/19/2024 14:24:34 0.04, -75.23 0.18, -75.98 85.69 80
5 06/20/2024 14:06:30 0.04, -75.23 -0.90, -70.97 485.10 80
6 06/22/2024 02:25:25 -0.04, -75.24 -0.09, -75.57 37.05 80
7 06/24/2024 14:23:28 0.03, -75.26 -0.01, -75.12 16.82 80
8 06/27/2024 02:19:00 -0.02, -75.29 0.13, -74.70 67.25 80
9 06/28/2024 14:37:45 0.02, -75.31 0.91, -79.25 448.73 80
